Buffalo, MN

7:51 AM CST on December 12, 2019 (GMT -0600)
Buffalo

Weather History for KCFE - October, 2019

Change the Weather History Date:

Wednesday, October 9, 2019

  Actual Average (KMIC) Record (KMIC)
Temperature  
Mean Temperature 62 °F -  
Max Temperature 72 °F 60 °F 84 °F (2010)
Min Temperature 53 °F 38 °F 23 °F (2000)
Degree Days  
Heating Degree Days 3    
Growing Degree Days 12 (Base 50)    
Moisture  
Dew Point 44 °F    
Average Humidity 57    
Maximum Humidity 73    
Minimum Humidity 38    
Precipitation  
Precipitation 0.04 in - - ()
Sea Level Pressure  
Sea Level Pressure 29.88 in    
Wind  
Wind Speed - (North)    
Max Wind Speed -    
Max Gust Speed -    
Visibility 10 miles    
Events      
Averages and records for this station are not official NWS values.
T = Trace of Precipitation, MM = Missing Value Source: NWS Daily Summary

Daily Weather History Graph

Daily Weather History Graph

Search for Another Location

Airport or City:

Astronomy

Oct. 09, 2019 Rise Set
Actual Time 7:23 AM CDT 6:41 PM CDT
Civil Twilight 6:53 AM CDT 7:10 PM CDT
Nautical Twilight 6:19 AM CDT 7:44 PM CDT
Astronomical Twilight 5:45 AM CDT 8:18 PM CDT
Moon 5:27 PM CDT (10/9) 2:54 AM CDT (10/9)
Length of Visible Light 12h 16m
Length of Day
11h 18m
Waxing Gibbous, 85% of the Moon is Illuminated
Oct 9
Waxing Gibbous
Oct 13
Full
Oct 21
Last Quarter
Oct 27
New
Nov 4
First Quarter

Hourly Weather History & Observations

Time (CDT) Temp. Dew Point Humidity Pressure Visibility Wind Dir Wind Speed Gust Speed Precip Events Conditions
12:15 AM 57.6 °F 43.0 °F 58% 29.91 in 10.0 mi North - - N/A   Clear
12:35 AM 57.2 °F 43.2 °F 59% 29.90 in 10.0 mi North - - N/A   Clear
12:36 AM 57.2 °F 43.2 °F 59% 29.90 in 10.0 mi North - - N/A   Clear
12:55 AM 56.7 °F 43.3 °F 61% 29.90 in 10.0 mi North - - N/A   Clear
1:15 AM 56.3 °F 43.7 °F 63% 29.90 in 10.0 mi North - - N/A   Clear
1:16 AM 56.3 °F 43.7 °F 63% 29.90 in 10.0 mi North - - N/A   Clear
1:35 AM 55.6 °F 43.7 °F 64% 29.90 in 10.0 mi North - - N/A   Clear
1:55 AM 55.4 °F 43.7 °F 65% 29.90 in 10.0 mi North - - N/A   Clear
2:15 AM 55.2 °F 43.9 °F 66% 29.89 in 10.0 mi North - - N/A   Clear
2:35 AM 55.4 °F 43.9 °F 65% 29.89 in 10.0 mi North - - N/A   Clear
2:55 AM 54.9 °F 43.9 °F 66% 29.89 in 10.0 mi North - - N/A   Clear
3:15 AM 54.9 °F 44.2 °F 67% 29.89 in 10.0 mi North - - N/A   Clear
3:35 AM 54.5 °F 44.1 °F 68% 29.89 in 10.0 mi North - - N/A   Clear
3:55 AM 54.1 °F 44.2 °F 69% 29.89 in 10.0 mi North - - N/A   Clear
3:56 AM 54.1 °F 44.2 °F 69% 29.89 in 10.0 mi North - - N/A   Clear
4:15 AM 54.1 °F 44.2 °F 69% 29.89 in 10.0 mi North - - N/A   Clear
4:35 AM 54.0 °F 44.2 °F 70% 29.88 in 10.0 mi North - - N/A   Clear
4:55 AM 53.8 °F 44.1 °F 70% 29.88 in 10.0 mi North - - N/A   Clear
4:56 AM 53.8 °F 44.1 °F 70% 29.88 in 10.0 mi North - - N/A   Clear
5:15 AM 53.6 °F 44.1 °F 70% 29.88 in 10.0 mi North - - N/A   Clear
5:35 AM 53.2 °F 44.2 °F 72% 29.88 in 10.0 mi North - - N/A   Clear
5:36 AM 53.2 °F 44.2 °F 72% 29.88 in 10.0 mi North - - N/A   Clear
5:55 AM 54.1 °F 44.4 °F 70% 29.88 in 10.0 mi North - - N/A   Clear
6:15 AM 54.1 °F 44.6 °F 70% 29.88 in 10.0 mi North - - N/A   Clear
6:16 AM 54.0 °F 44.6 °F 71% 29.88 in 10.0 mi North - - N/A   Clear
6:35 AM 53.6 °F 44.2 °F 71% 29.88 in 10.0 mi North - - N/A   Clear
6:55 AM 53.4 °F 44.1 °F 71% 29.88 in 10.0 mi North - - N/A   Clear
6:56 AM 53.2 °F 44.1 °F 71% 29.88 in 10.0 mi North - - N/A   Clear
7:15 AM 53.2 °F 44.4 °F 72% 29.88 in 10.0 mi North - - N/A   Clear
7:16 AM 53.2 °F 44.4 °F 72% 29.88 in 10.0 mi North - - N/A   Clear
7:35 AM 53.1 °F 44.6 °F 73% 29.88 in 10.0 mi North - - N/A   Clear
7:36 AM 53.1 °F 44.6 °F 73% 29.87 in 10.0 mi North - - N/A   Clear
7:55 AM 53.2 °F 44.2 °F 72% 29.88 in 10.0 mi North - - N/A   Clear
8:15 AM 54.1 °F 44.4 °F 70% 29.88 in 10.0 mi North - - N/A   Clear
8:35 AM 55.4 °F 44.6 °F 67% 29.88 in 10.0 mi North - - N/A   Clear
8:36 AM 55.4 °F 44.6 °F 67% 29.88 in 10.0 mi North - - N/A   Clear
8:55 AM 56.3 °F 44.6 °F 65% 29.88 in 10.0 mi North - - N/A   Clear
8:56 AM 56.5 °F 44.8 °F 65% 29.88 in 10.0 mi North - - N/A   Clear
9:15 AM 57.4 °F 45.0 °F 63% 29.88 in 10.0 mi North - - N/A   Clear
9:16 AM 57.4 °F 45.0 °F 63% 29.89 in 10.0 mi North - - N/A   Clear
9:35 AM 58.3 °F 44.8 °F 61% 29.88 in 10.0 mi North - - N/A   Clear
9:55 AM 59.4 °F 45.0 °F 59% 29.88 in 10.0 mi North - - N/A   Clear
9:56 AM 59.5 °F 45.0 °F 59% 29.88 in 10.0 mi North - - N/A   Clear
10:15 AM 60.4 °F 45.0 °F 57% 29.89 in 10.0 mi North - - N/A   Clear
10:16 AM 60.6 °F 45.0 °F 56% 29.89 in 10.0 mi North - - N/A   Clear
10:35 AM 62.1 °F 45.7 °F 55% 29.89 in 10.0 mi North - - N/A   Clear
10:55 AM 63.0 °F 45.1 °F 52% 29.88 in 10.0 mi North - - N/A   Clear
10:56 AM 63.1 °F 45.1 °F 52% 29.88 in 10.0 mi North - - N/A   Clear
11:15 AM 64.4 °F 45.0 °F 49% 29.88 in 10.0 mi North - - N/A   Clear
11:35 AM 65.5 °F 45.1 °F 48% 29.87 in 10.0 mi North - - N/A   Clear
11:36 AM 65.7 °F 45.1 °F 47% 29.87 in 10.0 mi North - - N/A   Clear
11:55 AM 67.3 °F 45.0 °F 45% 29.87 in 10.0 mi North - - N/A   Clear
12:15 PM 68.2 °F 45.1 °F 43% 29.87 in 10.0 mi North - - N/A   Clear
12:35 PM 69.6 °F 45.9 °F 43% 29.87 in 10.0 mi North - - N/A   Clear
12:36 PM 69.8 °F 45.9 °F 42% 29.87 in 10.0 mi North - - N/A   Clear
12:55 PM - - N/A% - - North - - N/A   Unknown
1:15 PM 69.4 °F 45.0 °F 41% 29.86 in 10.0 mi North - - 0.04 in   Clear
1:35 PM 71.6 °F 45.1 °F 39% 29.85 in 10.0 mi North - - 0.04 in   Clear
1:55 PM 71.6 °F 44.8 °F 38% 29.85 in 10.0 mi North - - 0.04 in   Clear
2:15 PM 69.3 °F 45.1 °F 42% 29.85 in 10.0 mi North - - N/A   Scattered Clouds
2:16 PM 69.3 °F 45.1 °F 42% 29.85 in 10.0 mi North - - N/A   Scattered Clouds
2:35 PM 69.6 °F 46.2 °F 43% 29.83 in 10.0 mi North - - N/A   Mostly Cloudy
2:55 PM 69.1 °F 46.6 °F 45% 29.84 in 10.0 mi North - - N/A   Overcast
3:15 PM 69.8 °F 46.2 °F 43% 29.83 in 10.0 mi North - - N/A   Overcast
3:35 PM 70.7 °F 46.8 °F 42% 29.83 in 10.0 mi North - - N/A   Overcast
3:55 PM 70.7 °F 44.2 °F 39% 29.83 in 10.0 mi North - - N/A   Mostly Cloudy
4:15 PM 70.3 °F 45.5 °F 41% 29.83 in 10.0 mi North - - N/A   Mostly Cloudy
4:35 PM 70.0 °F 45.9 °F 42% 29.84 in 10.0 mi North - - N/A   Overcast
4:55 PM 69.4 °F 45.9 °F 43% 29.84 in 10.0 mi North - - N/A   Overcast
5:15 PM 69.8 °F 43.0 °F 38% 29.84 in 10.0 mi North - - N/A   Overcast
5:35 PM 69.4 °F 42.6 °F 38% 29.86 in 10.0 mi North - - N/A   Overcast
5:36 PM 69.4 °F 42.6 °F 38% 29.86 in 10.0 mi North - - N/A   Overcast
5:55 PM 69.1 °F 42.3 °F 38% 29.87 in 10.0 mi North - - N/A   Overcast
6:16 PM 67.8 °F 42.8 °F 40% 29.88 in 10.0 mi North - - N/A   Overcast
6:35 PM 66.6 °F 43.9 °F 44% 29.88 in 10.0 mi North - - N/A   Scattered Clouds
6:55 PM 64.4 °F 44.4 °F 48% 29.89 in 10.0 mi North - - N/A   Scattered Clouds
7:15 PM 64.0 °F 44.6 °F 49% 29.89 in 10.0 mi North - - N/A   Scattered Clouds
7:35 PM 63.5 °F 44.8 °F 51% 29.90 in 10.0 mi North - - N/A   Clear
7:55 PM 63.9 °F 43.9 °F 48% 29.90 in 10.0 mi North - - N/A   Clear
7:56 PM 63.9 °F 43.9 °F 48% 29.91 in 10.0 mi North - - N/A   Clear
8:16 PM 63.7 °F 43.7 °F 48% 29.91 in 10.0 mi North - - N/A   Clear
8:35 PM 63.0 °F 43.9 °F 50% 29.91 in 10.0 mi North - - N/A   Clear
8:55 PM 62.1 °F 44.8 °F 53% 29.91 in 10.0 mi North - - N/A   Scattered Clouds
8:56 PM 62.1 °F 44.8 °F 53% 29.91 in 10.0 mi North - - N/A   Scattered Clouds
9:15 PM 61.5 °F 44.8 °F 54% 29.92 in 10.0 mi North - - N/A   Scattered Clouds
9:16 PM 61.3 °F 44.6 °F 54% 29.92 in 10.0 mi North - - N/A   Scattered Clouds
9:35 PM 60.8 °F 44.6 °F 55% 29.92 in 10.0 mi North - - N/A   Clear
9:55 PM 60.3 °F 44.8 °F 57% 29.93 in 10.0 mi North - - N/A   Clear
10:15 PM 59.9 °F 44.2 °F 56% 29.94 in 10.0 mi North - - N/A   Clear
10:35 PM 59.2 °F 44.1 °F 57% 29.94 in 10.0 mi North - - N/A   Clear
10:36 PM 59.2 °F 44.1 °F 57% 29.94 in 10.0 mi North - - N/A   Clear
10:55 PM 58.6 °F 43.7 °F 58% 29.94 in 10.0 mi North - - N/A   Clear
11:15 PM 58.1 °F 43.7 °F 59% 29.96 in 10.0 mi North - - N/A   Clear
11:35 PM 56.7 °F 43.7 °F 62% 29.95 in 10.0 mi North - - N/A   Clear
11:55 PM 57.0 °F 43.7 °F 61% 29.96 in 10.0 mi North - - N/A   Clear